Zurück zum Katalog

EKVADOR-UTE-YUZGU

AktivWissenschaftSSO
NORAD 42832·PAYLOAD·🇷🇺 Russia
Dieser Satellitenname wurde noch nicht durch offizielle Quellen bestätigt.

Gestartet Jul 14, 2017 von Baikonur Cosmodrome

Loading…

Nächste Überflüge (nächste 24 Stunden)

TLE

AktuellSource: Space-Track

Epoche: Sep 14, 2026, 10:03 UTC

1 42832U 17042H   26257.41898293  .00002899  00000-0  18843-3 0  9994
2 42832  97.4281  54.9762 0010360 158.2622 201.9048 15.08727085500395

Verfolge EKVADOR-UTE-YUZGU in Echtzeit mit AllMySat

Download on the App Store